CZ-6A DEB

Satellite information

Favourite Embed

Satellite Type and Status

DEBRISIN ORBIT

Key statistics

Satellite CZ-6A DEB at a glance.

Uptime

1128

Days in orbit

Revolutions

≈ 14.3

Per day

Orbit

SSO

Sun Synchronous Orbit

Inclination

98.7

Latest

Satellite identification and parameters

Extended collection of information and parameters for CZ-6A DEB.

Object identification

Identified? True

Debris? True

Object name: CZ-6A DEB

International designator: 2022-151WM

Object number (NORAD): 55220

Object ID (CCSDS): 55220

Country: PEOPLES REPUBLIC OF CHINA (PRC)

Current information (Y/N): Y

RCS size: SMALL

Orbital parameters

Period: 100.556 minutes

Inclination: 98.7352 deg

SMA: 7163.056 km

Apoapsis: 848.943 km

Periapsis: 720.899 km

RAAN: 17.6156 deg

Eccentricy: 0.0089378

Argument of periapsis: 143.434 deg

Mean anomaly: 217.2989 deg

Mean motion: 14.32040435 rev/day

Mean motion (dot): 0.00001299 rev/day2

B* drag term: 0.0004788 1/REarth

Two-line elements (TLE)

Creation date: Dec. 12, 2025, 7:26 a.m.

Reference frame: TEME

Reference center: EARTH

Epoch: Dec. 12, 2025, 12:51 a.m. UTC

TLE line 0: 0 CZ-6A DEB

TLE line 1: 1 55220U 22151WM 25346.03562155 .00001299 00000-0 47880-3 0 9993

TLE line 2: 2 55220 98.7352 17.6156 0089378 143.4340 217.2989 14.32040435155410

Live tracking on map

Real-time ground track for satellite CZ-6A DEB.

In-orbit conjunctions

A list of the most updated potential collisions computed for object CZ-6A DEB.

Target Orbit TCA Probability of collision Miss distance Type
DELTA 1 DEB SSO 2025-05-13 12:10:48 0.0002262107 281.0 (m) DEBRIS
DELTA 1 DEB * SSO 2025-01-28 00:39:19 0.000127981 215.0 (m) DEBRIS
THORAD AGENA D DEB LEO 2024-10-09 00:59:00 0.0001739401 77.0 (m) DEBRIS

Associated space launch

Chinese satellite reported for atmospheric/ocean/environmental/spatial parameter research purposes, details TBD.

CZ-6A DEB was lifted into orbit during the mission ‘Long March 6A | Yunhai 3’, on board a Long March 6A space rocket.

The launch took place on Nov. 11, 2022, 10:52 p.m. from Launch Complex 9A.

For more information about the launch, click the button.

Launch to space Long March 6A | Yunhai 3
Long March 6A | Yunhai 3

Agency: N/A

Status: Launch Successful

Launch date: Nov. 11, 2022, 10:52 p.m. UTC

Rocket: Long March 6A

Launch pad: Launch Complex 9A

Location: Taiyuan Satellite Launch Center, People's Republic of China

...

Latest news about this satellite

There are no fresh news available about this satellite. Check back as we update our databases every day.


Newsletter sign-up

Weekly statistics, charts and insights to help you stay on top of the space industry.